2023/05/13 00:00:00,52.1,13.2
2023/05/13 00:10:00,55.2,13.2
2023/05/13 00:20:00,62.7,13.1
2023/05/13 00:30:00,56.2,12.6
2023/05/13 00:40:00,57.7,12.8
2023/05/13 00:50:00,55.6,12.8
2023/05/13 01:00:00,54.7,12.6
2023/05/13 01:10:00,53.1,13.1
2023/05/13 01:20:00,52.9,13.6
2023/05/13 01:30:00,57.9,14.6
2023/05/13 01:40:00,60.1,13.8
2023/05/13 01:50:00,54.3,14.1
2023/05/13 02:00:00,52.6,13.9
2023/05/13 02:10:00,52.4,13.8
2023/05/13 02:20:00,52.4,13.8
2023/05/13 02:30:00,53.7,14.0
2023/05/13 02:40:00,55.6,13.8
2023/05/13 02:50:00,53.9,13.6
2023/05/13 03:00:00,52.7,14.0
2023/05/13 03:10:00,61.3,13.9
2023/05/13 03:20:00,59.3,14.0
2023/05/13 03:30:00,60.5,14.0
2023/05/13 03:40:00,61.1,14.0
2023/05/13 03:50:00,53.7,13.9
2023/05/13 04:00:00,56.3,14.0
2023/05/13 04:10:00,57.6,14.6
2023/05/13 04:20:00,58.1,14.2
2023/05/13 04:30:00,56.9,13.9
2023/05/13 04:40:00,54.2,13.7
2023/05/13 04:50:00,56.4,13.7
2023/05/13 05:00:00,59.9,13.8
2023/05/13 05:10:00,59.3,14.7
2023/05/13 05:20:00,53.3,15.1
2023/05/13 05:30:00,56.7,14.8
2023/05/13 05:40:00,55.5,13.7
2023/05/13 05:50:00,52.0,13.8
2023/05/13 06:00:00,52.0,14.0
2023/05/13 06:10:00,52.4,14.8
2023/05/13 06:20:00,53.4,15.2
2023/05/13 06:30:00,55.8,15.6
2023/05/13 06:40:00,57.4,15.4
2023/05/13 06:50:00,58.3,15.6
2023/05/13 07:00:00,60.4,15.7
2023/05/13 07:10:00,60.5,15.9
2023/05/13 07:20:00,61.5,16.7
2023/05/13 07:30:00,59.3,17.2
2023/05/13 07:40:00,52.7,17.6
2023/05/13 07:50:00,52.7,17.9
2023/05/13 08:00:00,52.8,18.6
2023/05/13 08:10:00,52.2,18.8
2023/05/13 08:20:00,52.9,19.5
2023/05/13 08:30:00,57.0,20.4
2023/05/13 08:40:00,60.0,20.8
2023/05/13 08:50:00,57.0,22.0
2023/05/13 09:00:00,53.9,22.6
2023/05/13 09:10:00,58.0,22.6
2023/05/13 09:20:00,54.4,23.3
2023/05/13 09:30:00,56.4,23.2
2023/05/13 09:40:00,54.0,23.8
2023/05/13 09:50:00,55.4,24.1
2023/05/13 10:00:00,61.5,22.8
2023/05/13 10:10:00,60.1,23.0
2023/05/13 10:20:00,59.4,22.8
2023/05/13 10:30:00,58.2,22.7
2023/05/13 10:40:00,59.6,23.7
2023/05/13 10:50:00,55.3,22.6
2023/05/13 11:00:00,53.8,22.5
2023/05/13 11:10:00,55.1,22.3
2023/05/13 11:20:00,60.2,21.9
2023/05/13 11:30:00,58.6,21.4
2023/05/13 11:40:00,56.1,20.8
2023/05/13 11:50:00,58.2,20.4
2023/05/13 12:00:00,55.9,20.2
2023/05/13 12:10:00,58.6,19.9
2023/05/13 12:20:00,51.7,20.0
2023/05/13 12:30:00,47.6,19.5
2023/05/13 12:40:00,50.1,19.4
2023/05/13 12:50:00,50.8,18.7
2023/05/13 13:00:00,46.5,19.0
2023/05/13 13:10:00,51.0,18.4
2023/05/13 13:20:00,46.4,18.2
2023/05/13 13:30:00,45.2,17.3
2023/05/13 13:40:00,49.7,15.7
2023/05/13 13:50:00,57.8,15.9
2023/05/13 14:00:00,54.0,15.3
2023/05/13 14:10:00,55.1,15.2
2023/05/13 14:20:00,55.0,15.3
2023/05/13 14:30:00,55.1,15.6
2023/05/13 14:40:00,54.4,15.6
2023/05/13 14:50:00,55.6,15.7
2023/05/13 15:00:00,55.9,15.7
2023/05/13 15:10:00,56.6,16.0
2023/05/13 15:20:00,57.1,15.8
2023/05/13 15:30:00,57.0,15.6
2023/05/13 15:40:00,58.0,14.8
2023/05/13 15:50:00,61.0,14.0
2023/05/13 16:00:00,58.6,14.4
2023/05/13 16:10:00,58.7,13.7
2023/05/13 16:20:00,59.1,13.8
2023/05/13 16:30:00,59.3,13.7
2023/05/13 16:40:00,57.5,13.7
2023/05/13 16:50:00,59.7,13.5
2023/05/13 17:00:00,59.7,13.2
2023/05/13 17:10:00,---,13.2
2023/05/13 17:20:00,56.6,13.1
2023/05/13 17:30:00,61.9,13.2
2023/05/13 17:40:00,60.5,13.3
2023/05/13 17:50:00,60.3,13.2
2023/05/13 18:00:00,63.9,13.1
2023/05/13 18:10:00,61.2,13.2
2023/05/13 18:20:00,49.4,12.8
2023/05/13 18:30:00,42.2,12.5
2023/05/13 18:40:00,43.1,12.9
2023/05/13 18:50:00,49.1,12.5
2023/05/13 19:00:00,53.3,11.8
2023/05/13 19:10:00,46.9,12.1
2023/05/13 19:20:00,47.8,12.2
2023/05/13 19:30:00,53.0,12.4
2023/05/13 19:40:00,52.7,12.0
2023/05/13 19:50:00,59.7,12.1
2023/05/13 20:00:00,56.6,12.0
2023/05/13 20:10:00,43.9,12.4
2023/05/13 20:20:00,47.6,12.4
2023/05/13 20:30:00,56.9,12.6
2023/05/13 20:40:00,60.0,12.1
2023/05/13 20:50:00,58.6,12.1
2023/05/13 21:00:00,61.5,12.0
2023/05/13 21:10:00,60.7,12.2
2023/05/13 21:20:00,58.3,12.2
2023/05/13 21:30:00,56.9,12.3
2023/05/13 21:40:00,53.2,12.7
2023/05/13 21:50:00,---,12.9
2023/05/13 22:00:00,55.8,13.0
2023/05/13 22:10:00,52.8,12.5
2023/05/13 22:20:00,63.0,12.9
2023/05/13 22:30:00,65.4,12.9
2023/05/13 22:40:00,65.3,12.1
2023/05/13 22:50:00,64.6,12.4
2023/05/13 23:00:00,65.4,12.5
2023/05/13 23:10:00,64.5,12.2
2023/05/13 23:20:00,63.9,12.1
2023/05/13 23:30:00,61.2,12.2
2023/05/13 23:40:00,65.1,12.3
2023/05/13 23:50:00,62.9,12.6
